Location: Unspecified
(49.2170°N, 0.0000°E)
Time: 14:12:18
(UTC+00:00)

SR - Pass Details

Date: 29 January 2021
Orbit: 573 x 882 km, 66.7° (Epoch: 05 March)

Event Time Altitude Azimuth Distance (km) Brightness Sun altitude
Exits shadow 06:27:41 12° 311° (NW) 2,196 ? -11.1°
Maximum altitude 06:30:18 16° 342° (NNW) 1,985 ? -10.7°
Drops below altitude 10° 06:33:37 10° 19° (NNE) 2,421 ? -10.2°
Sets 06:37:13 0° 41° (NE) 3,410 ? -9.6°
